SCP
0 0 0 0 0 0 0 0 0 0 0 0 0 0 0 0 0 0 0 0 0 0 0 0 0 0 0 0 0 0 0 -0 0 0 0 0 0 0 0 0 0 0 0 0 0 0 0 0 0 0 0 0 0 0
0 0 0 0 0 0 0 0 0 0 0 0 0 0 0 0 0 0 0 0 0 0 0 0 0 0 0 0 0 0 0 0 0 0 0 -0 -0 -0 0 0 0 0 0 0 0 0 0 0 0 0 0 0 0 0
0 0 0 0 0 0 0 0 0 0 0 0 0 0 0 0 0 0 0 0 0 0 0 0 -0 -0 0 -0 0 0 0 0 0 0 0 -0 0 0 0 0 0 0 -0 0 0 0 0 0 0 0 0 0 0 0
0 0 0 0 0 0 0 0 0 0 0 0 0 0 0 0 0 0 0 0 0 0 0 0 0 0 0 0 0 -0 -0 0 0 0 0 -0 -0 -0 0 0 -0 0 -0 -0 -0 0 0 0 0 0 0 0 0 0
0 0 0 0 0 0 0 0 0 0 0 0 0 0 0 -0 0 0 0 0 0 0 0 0 -0 -0 -0 -0 -0 -0 -0 0 0 0 0 0 0 0 0 -0 -0 0 0 -0 -0 0 -0 0 0 0 0 0 0 0
0 0 0 0 0 0 0 0 0 0 0 0 0 0 -0 -0 0 0 0 0 0 0 0 0 0 0 0 0 -0 0 0 0 0 0 0 -0 0 0 -0 -0 0 0 0 -0 0 0 -0 0 0 0 0 0 0 0
0 0 0 0 0 0 0 0 0 0 0 0 0 0 -0 0 0 0 0 0 0 0 -0 -0 -0 0 0 0 0 0 0 0 0 0 0 0 0 0 -0 0 0 0 0 0 0 0 0 0 0 0 0 0 0 0
0 0 0 0 0 0 0 0 0 0 0 0 -0 -0 -0 0 0 0 0 -0 0 0 0 0 -0 -0 0 0 0 0 -0 -0 -0 -0 0 0 0 0 -0 -0 0 0 0 -0 0 0 0 0 0 0 0 0 0 0
0 0 0 0 0 0 0 0 0 0 -0 -0 -0 -0 -0 0 0 0 0 0 0 0 0 0 0 -0 0 0 0 0 0 -0 -0 -0 -0 -0 0 -0 0 0 0 0 0 0 0 0 0 0 -0 0 0 0 0 0
0 0 0 0 0 0 0 0 0 0 -0 -0 0 0 0 0 0 0 0 0 0 0 0 0 0 0 0 0 0 0 0 -0 0 -0 -0 -0 -0 -0 -0 -0 0 0 0 0 0 0 0 0 0 0 0 0 0 0
0 0 0 0 0 0 0 0 -0 -0 0 -0 -0 0 0 0 0 0 0 0 0 0 0 0 0 -0 0 0 0 0 0 -0 0 0 0 0 -0 -0 -0 -0 0 0 0 0 0 0 0 0 0 0 0 0 0 -0
0 0 0 0 -0 0 -0 -0 -0 -0 0 0 0 0 0 0 0 0 0 0 0 0 0 0 0 -0 -0 0 0 0 0 0 0 0 0 0 0 -0 -0 -0 0 0 0 -0 -0 -0 -0 0 0 0 0 0 0 -0
0 -0 -0 -0 -0 -0 -0 -0 -0 -0 -0 0 0 0 0 0 0 0 0 0 0 0 0 0 0 0 -0 0 0 0 0 0 0 0 -0 -0 -0 0 0 0 0 0 0 0 0 -0 -0 0 0 -0 -0 -0 -0 0
-0 -0 -0 -0 0 -0 -0 -0 0 -0 0 0 0 0 -0 0 0 0 0 0 0 0 0 0 0 0 0 0 0 0 0 0 0 0 -0 0 -0 0 -0 0 0 0 0 0 0 0 0 -0 -0 -0 -0 0 0 0
-0 -0 -0 0 0 0 -0 0 0 0 0 0 0 0 0 0 0 0 0 0 0 0 0 0 0 0 0 0 0 0 0 0 0 0 -0 -0 -0 -0 -0 0 0 0 0 0 0 -0 -0 -0 -0 -0 0 0 0 0
-0 -0 0 0 0 -0 -0 -0 0 0 0 0 0 0 0 0 0 0 0 0 0 0 0 0 0 0 0 0 0 0 0 0 0 0 -0 -0 0 0 0 0 0 0 0 0 0 -0 -0 -0 -0 -0 0 0 0 0
0 0 0 0 -0 -0 -0 0 -0 0 0 0 0 0 0 -0 -0 0 0 0 0 0 0 0 0 0 0 0 0 0 0 0 0 0 -0 -0 0 -0 0 -0 0 0 0 0 0 0 0 0 0 0 0 0 0 0
0 0 -0 -0 -0 0 -0 0 -0 -0 0 0 0 0 0 0 0 0 -0 -0 0 0 0 -0 0 0 0 0 0 0 0 0 0 0 0 0 -0 0 0 -0 0 0 0 0 0 0 0 0 0 -0 -0 0 0 0
0 -0 -0 -0 0 0 -0 -0 -0 0 0 0 0 0 0 0 0 0 0 -0 0 0 0 0 0 0 0 0 0 0 0 0 0 0 0 0 0 0 0 0 0 0 0 0 0 0 0 0 -0 -0 -0 -0 -0 -0
-0 -0 -0 -0 -0 0 0 -0 -0 0 0 0 0 0 0 0 0 0 -0 0 -0 -0 -0 0 0 0 0 0 0 0 0 0 0 0 0 0 0 0 0 0 -0 -0 -0 -0 0 0 0 0 -0 0 0 0 0 -0
0 0 -0 0 -0 -0 0 0 -0 0 0 0 0 -0 0 0 0 -0 0 -0 -0 -0 -0 0 0 0 0 0 0 0 0 0 0 0 0 0 0 0 0 0 -0 -0 -0 -0 -0 -0 0 0 -0 -0 -0 -0 -0 -0
0 0 0 -0 0 0 0 -0 -0 -0 0 0 0 0 0 0 -0 -0 0 0 -0 0 0 0 0 0 0 0 0 0 0 0 0 0 0 0 0 0 0 0 0 0 0 0 0 -0 -0 -0 -0 0 0 0 -0 -0
-0 0 -0 -0 0 0 0 -0 -0 -0 -0 0 0 -0 -0 0 0 -0 -0 0 0 0 0 -0 -0 -0 0 0 0 -0 -0 0 0 0 0 0 0 0 0 0 0 0 0 0 0 -0 -0 -0 -0 -0 0 -0 -0 -0
-0 0 0 0 0 0 0 -0 -0 0 -0 -0 0 0 -0 -0 0 0 -0 0 0 0 0 0 -0 -0 -0 -0 -0 -0 -0 -0 -0 -0 -0 0 -0 -0 0 0 0 0 0 0 0 -0 -0 -0 -0 -0 -0 -0 0 0
0 0 0 0 0 0 0 -0 -0 0 0 -0 -0 -0 -0 0 -0 0 0 0 0 0 0 0 0 0 0 0 -0 -0 -0 -0 -0 0 0 0 0 0 0 0 0 0 0 0 0 0 0 -0 -0 -0 -0 -0 -0 -0
0 0 0 0 0 0 0 0 -0 -0 -0 -0 -0 -0 0 -0 0 0 0 0 0 0 0 0 0 0 -0 -0 -0 -0 -0 -0 -0 -0 0 -0 -0 0 -0 0 0 0 0 0 0 0 0 -0 -0 -0 -0 -0 -0 -0
0 0 0 0 0 -0 0 0 -0 0 -0 -0 0 -0 0 0 0 0 0 0 0 0 0 0 0 0 0 -0 -0 -0 0 0 0 -0 0 0 -0 -0 0 0 0 0 0 0 0 0 0 0 0 0 0 0 0 0
0 0 0 -0 0 0 0 0 0 -0 0 0 -0 -0 -0 0 0 0 0 0 0 0 0 0 0 0 0 0 0 -0 -0 -0 -0 0 -0 -0 -0 -0 -0 0 -0 0 0 0 0 0 0 0 0 0 0 0 0 0
0 0 0 0 0 -0 -0 -0 0 -0 -0 -0 0 0 0 0 0 0 0 0 0 0 0 0 0 0 0 0 0 0 -0 -0 -0 -0 -0 0 -0 -0 -0 -0 -0 0 0 0 0 0 0 0 0 0 0 0 0 0
0 0 0 0 0 -0 -0 -0 -0 -0 0 0 0 0 0 0 0 0 0 0 0 0 0 0 0 0 0 0 0 0 0 -0 0 0 -0 -0 -0 -0 -0 -0 -0 -0 -0 0 0 0 0 0 0 0 0 0 0 0
0 0 0 0 0 0 -0 0 -0 0 0 0 0 0 0 0 0 0 0 0 0 0 0 0 0 0 0 0 0 0 0 0 0 0 0 0 -0 -0 -0 -0 0 -0 0 0 0 0 0 0 -0 -0 -0 -0 -0 0
0 0 0 0 0 0 0 0 -0 -0 -0 -0 0 0 -0 0 0 -0 -0 0 -0 0 0 0 0 0 -0 -0 -0 -0 0 0 0 0 0 0 0 -0 -0 -0 -0 0 -0 0 -0 -0 -0 -0 -0 -0 -0 0 -0 0
0 0 0 0 0 -0 0 0 0 -0 -0 -0 -0 -0 -0 0 0 0 -0 -0 -0 0 0 0 0 0 0 0 -0 -0 -0 -0 0 0 0 0 0 0 0 0 0 0 0 0 0 0 -0 -0 -0 -0 0 0 0 0
Wind_Speed_500mb
44 45 47 48 50 52 54 55 55 55 54 58 58 62 59 50 47 48 61 52 57 54 81 78 80 68 51 29 15 26 26 19 5 6 7 9 7 3 11 13 10 11 10 15 24 22 45 23 14 25 14 34 39 46
46 48 49 50 52 54 54 55 58 57 58 58 62 64 58 49 48 47 66 56 53 70 66 81 85 67 63 70 60 45 32 21 9 3 5 5 10 6 11 7 4 7 4 5 3 9 13 15 28 36 42 55 43 46
49 50 50 51 53 53 54 54 58 56 56 57 63 65 58 54 54 48 60 52 47 57 70 77 67 71 67 77 83 58 58 47 36 52 20 8 16 7 3 7 4 5 8 7 12 17 23 19 8 40 47 53 50 40
51 50 52 53 53 51 53 57 57 54 54 58 60 61 56 51 49 46 48 41 38 26 14 28 24 41 48 47 57 73 79 66 57 47 20 8 8 13 6 7 4 10 7 6 7 35 40 36 20 13 38 50 45 37
50 49 50 51 51 50 54 60 57 53 55 57 59 57 56 52 51 40 38 38 34 35 11 35 60 70 51 62 60 53 64 74 50 19 10 10 10 10 14 7 18 21 14 9 8 25 17 25 31 14 30 56 45 41
49 48 48 48 46 48 56 60 56 53 56 57 58 57 55 45 39 36 13 12 14 26 13 7 29 69 40 38 48 45 68 72 46 16 10 14 30 26 7 7 15 38 46 52 27 30 26 36 24 23 14 24 35 41
48 46 43 43 42 45 50 56 52 52 56 57 59 57 51 42 36 24 15 22 15 5 9 11 13 15 10 5 12 35 37 36 44 33 21 22 29 26 8 25 17 25 38 47 54 53 30 29 17 7 8 23 34 43
47 44 43 43 43 46 49 53 49 53 58 62 60 56 53 41 31 23 10 13 31 17 9 5 9 14 8 9 5 9 10 29 26 20 10 9 9 12 11 20 34 52 63 68 68 54 47 32 26 36 26 47 48 48
45 42 43 44 46 48 51 50 47 52 58 60 52 45 35 7 8 15 29 35 25 25 8 8 6 8 6 6 7 6 6 6 15 8 6 11 7 14 23 30 46 60 45 43 43 33 45 57 61 54 60 50 47 49
40 39 40 41 43 45 49 47 46 53 57 54 31 14 10 4 24 63 8 6 16 17 16 9 11 8 21 15 7 4 9 3 4 10 12 9 18 66 66 75 60 54 46 49 42 41 43 44 39 31 49 46 52 49
36 36 37 36 38 42 44 44 46 51 54 29 14 9 30 56 17 5 6 6 9 6 13 16 24 12 18 5 7 12 5 4 5 6 9 6 8 21 68 81 86 70 64 57 46 39 18 14 22 32 38 51 53 45
35 35 33 35 37 38 39 41 33 41 40 39 37 43 26 11 6 3 5 3 8 6 6 8 13 27 21 15 6 5 5 3 9 11 7 6 8 17 23 17 45 65 76 77 61 43 38 26 16 34 42 56 50 45
33 33 31 33 35 39 36 22 28 31 39 17 4 6 5 6 6 5 5 5 6 8 11 10 9 13 12 7 1 1 7 10 11 6 6 8 9 43 52 41 31 41 44 72 67 61 60 41 36 45 58 55 53 52
30 31 29 29 29 15 17 24 30 27 14 6 4 9 6 8 8 7 7 11 16 17 43 41 13 9 9 4 4 6 8 3 6 7 9 2 39 56 59 50 52 51 25 42 39 33 33 44 56 49 46 49 50 46
27 27 25 20 8 21 26 26 28 21 8 6 6 8 10 23 23 32 22 26 30 36 31 22 18 12 5 6 4 7 6 8 7 5 14 49 66 67 44 45 45 20 40 37 31 44 49 53 45 52 61 58 44 25
24 25 14 8 27 29 26 33 22 8 7 8 13 9 25 19 22 20 33 38 44 37 44 11 6 5 5 5 7 5 11 6 8 10 54 69 33 19 20 29 57 65 65 65 62 64 67 69 72 65 51 40 34 30
21 20 3 25 34 39 35 24 10 8 9 9 13 22 40 46 35 37 41 45 49 23 5 6 6 5 6 6 5 7 7 8 35 73 69 34 23 38 35 65 66 75 74 71 69 68 70 64 58 46 41 35 27 23
29 15 18 21 34 31 12 7 7 10 14 22 14 19 23 35 40 42 49 42 29 5 6 4 11 6 6 9 7 9 39 52 63 50 37 36 41 43 53 57 57 59 68 61 60 60 55 48 43 40 34 30 27 23
20 15 9 10 13 14 6 7 12 10 20 24 31 40 37 44 33 33 38 38 24 22 17 10 5 4 6 8 23 49 54 43 51 63 28 44 44 47 52 52 50 51 58 59 37 30 31 34 36 34 35 29 27 25
19 15 9 10 10 6 7 9 12 13 12 11 26 19 17 13 23 23 20 16 11 5 6 6 5 14 23 48 50 50 46 49 51 35 32 39 38 40 44 47 48 46 46 45 43 42 41 39 33 29 27 24 23 21
7 3 8 9 12 15 10 9 12 14 18 14 27 20 8 7 5 12 17 15 12 8 7 15 38 46 45 42 39 46 38 38 35 21 16 24 30 38 40 38 39 40 41 37 36 33 30 29 28 23 21 20 22 18
9 7 12 8 8 8 13 16 14 18 14 19 21 10 2 3 9 13 12 21 7 8 15 31 43 48 47 50 36 28 23 20 18 23 18 25 31 27 31 30 29 32 33 29 23 27 27 26 25 20 14 17 16 21
13 11 9 8 9 10 14 13 11 9 6 6 12 5 2 4 6 6 7 8 7 21 28 36 39 33 32 46 42 36 38 24 6 20 23 13 21 24 26 16 30 27 26 22 24 25 26 25 23 17 18 15 16 18
14 7 7 9 15 9 10 11 13 10 5 4 4 2 2 3 4 6 4 5 28 31 39 41 45 38 26 32 45 52 46 37 35 25 25 23 21 16 17 29 24 20 23 27 23 30 29 22 14 18 16 12 16 16
5 8 8 11 11 8 8 7 7 5 5 7 2 3 2 5 3 3 3 11 32 31 37 41 40 43 40 31 36 41 41 37 30 27 22 17 21 24 24 15 21 18 10 20 22 23 20 16 14 12 10 15 15 14
8 13 14 12 11 9 6 4 2 4 3 5 4 6 8 4 4 4 6 19 21 26 28 32 33 35 36 31 30 30 26 34 33 27 26 20 18 21 19 17 18 16 8 10 16 17 13 15 15 16 17 19 19 21
7 10 20 15 8 9 8 3 6 5 3 2 4 6 4 4 4 4 13 18 22 22 18 20 23 26 33 36 22 19 12 27 22 14 22 22 20 18 12 11 14 15 9 2 11 7 10 21 16 15 26 20 16 27
11 11 5 5 5 6 3 4 3 1 2 5 5 5 4 2 2 4 8 24 29 24 19 14 13 16 24 33 33 17 13 17 32 25 31 32 25 20 18 16 11 2 4 10 11 13 17 23 19 20 17 21 22 28
12 16 11 5 7 7 11 4 3 2 3 1 4 4 5 5 8 11 15 19 22 30 30 24 26 22 20 23 32 30 21 22 28 35 35 40 34 25 15 17 19 15 7 18 16 11 22 20 19 24 20 22 24 29
17 21 16 11 5 6 3 6 10 7 10 5 13 12 9 12 14 14 14 17 17 18 26 27 26 27 30 29 29 30 32 28 25 24 25 28 29 30 24 17 16 18 15 18 17 19 21 22 34 23 23 22 19 22
13 4 8 5 2 10 21 22 19 16 18 20 19 20 15 10 11 7 10 14 15 15 17 22 26 25 25 27 28 23 25 19 18 14 12 14 15 18 20 16 14 15 13 16 16 20 22 27 26 25 26 22 17 15
12 10 12 5 4 19 27 16 14 7 11 10 9 10 14 8 5 3 3 5 9 13 16 15 18 21 20 24 24 24 25 17 12 7 12 9 12 16 15 18 14 12 12 14 18 23 24 24 24 19 21 24 20 16
11 15 15 12 10 12 14 12 12 7 7 10 9 14 10 11 6 5 7 4 3 4 6 15 1 13 14 16 17 20 27 24 17 15 12 7 4 4 5 7 6 8 9 13 15 16 16 18 16 19 22 21 21 25
Wind_Direction_500mb
312 313 314 314 317 319 319 319 320 321 322 323 321 321 315 310 305 297 287 274 259 254 263 259 260 261 264 250 258 281 315 292 253 216 207 227 234 325 299 256 216 221 237 231 215 224 246 191 162 172 198 153 149 146
312 311 310 314 316 317 317 319 321 319 322 323 325 325 322 315 309 301 290 287 278 257 264 272 269 266 257 255 249 251 243 244 280 357 292 308 312 273 244 260 75 261 264 273 251 261 264 191 186 200 164 155 164 159
312 309 311 314 316 316 317 318 319 319 323 324 329 328 324 316 312 302 296 292 275 267 263 263 261 276 276 262 252 245 252 248 244 249 262 239 237 241 255 241 230 269 204 240 352 1 305 340 253 210 183 175 166 165
310 309 312 315 316 316 318 318 320 319 321 325 329 331 324 320 315 305 298 295 270 265 264 276 285 271 277 265 252 243 249 253 253 256 241 245 262 208 228 246 220 239 209 277 254 275 283 296 319 309 191 173 171 170
311 311 312 315 315 317 319 320 321 320 322 324 324 327 327 321 321 312 301 290 265 247 287 293 292 292 276 247 246 253 245 245 240 232 221 237 225 221 247 239 248 210 214 217 270 282 301 308 328 288 269 192 188 180
311 309 312 314 313 320 316 320 321 320 324 327 325 323 326 326 324 331 327 22 338 252 281 292 295 296 304 268 254 250 244 237 217 198 209 213 227 209 231 230 221 223 229 239 237 254 276 293 300 282 158 153 181 179
307 306 309 307 308 311 315 319 320 319 321 326 326 321 313 313 304 295 274 291 308 304 271 299 295 281 312 293 226 238 241 227 223 225 226 235 246 222 238 247 228 233 255 261 253 269 266 288 272 206 191 154 149 155
302 304 305 303 307 312 316 321 319 319 322 324 322 317 309 299 292 295 315 295 250 267 247 267 270 290 246 254 277 230 249 211 215 214 233 226 212 222 256 239 248 250 253 255 258 250 248 249 248 238 265 164 157 155
298 302 301 304 309 312 314 320 319 322 325 330 327 315 306 263 280 316 304 288 275 238 258 238 251 277 264 283 268 260 248 216 190 210 227 181 198 227 247 251 241 251 244 249 269 269 246 239 242 246 225 180 173 163
295 297 299 306 314 314 312 318 320 325 329 336 341 331 298 261 301 309 291 193 202 217 228 251 233 266 286 285 269 272 211 226 222 231 167 212 246 246 248 246 245 256 261 250 252 267 261 247 233 219 192 200 188 169
288 290 296 303 313 316 315 317 324 326 335 350 332 280 290 309 318 283 266 222 219 256 229 242 236 241 260 191 230 219 230 233 254 249 182 241 266 247 256 245 244 240 239 251 237 251 273 324 202 175 185 184 169 167
282 288 293 302 310 315 320 322 327 325 327 313 302 296 306 322 294 16 265 260 236 273 265 281 297 292 258 248 185 238 214 215 248 163 233 244 261 327 355 295 259 248 238 237 241 243 249 279 251 168 165 163 160 163
282 288 294 304 311 311 313 321 333 323 319 338 313 282 286 277 330 237 285 225 253 270 278 295 318 288 291 241 11 347 254 238 308 237 239 232 323 347 335 322 321 304 247 234 235 243 255 271 189 166 157 154 156 160
282 288 297 308 314 312 324 334 330 328 346 312 303 289 170 262 239 221 234 270 252 261 284 293 267 256 259 289 203 229 241 247 248 239 244 266 336 325 319 311 317 329 209 209 212 203 215 152 145 152 157 157 168 161
281 289 304 298 273 295 318 317 321 314 286 271 256 244 239 244 277 295 291 315 298 309 296 291 263 245 263 258 242 275 259 253 248 299 300 301 300 298 294 308 322 213 156 153 167 159 151 154 157 157 159 158 155 152
282 296 313 276 304 305 309 315 315 311 248 243 233 260 268 283 282 300 303 308 326 317 322 271 275 292 280 282 262 229 308 308 296 293 300 301 294 284 311 90 106 127 136 136 143 145 147 145 141 138 139 142 143 150
269 274 272 297 301 305 310 280 285 232 238 243 249 255 271 280 275 289 312 296 302 311 284 298 293 275 302 267 318 357 329 298 307 310 315 357 75 79 90 100 98 112 121 126 130 133 130 128 129 130 127 125 131 129
259 282 261 283 303 315 309 224 245 243 246 240 246 266 267 268 273 282 300 310 298 236 264 287 308 296 290 315 331 329 322 317 319 335 13 83 104 107 111 114 120 118 120 123 123 124 123 128 127 116 112 119 120 112
274 275 257 283 329 316 270 237 225 259 250 253 260 277 277 281 282 296 297 304 315 289 284 300 281 301 320 339 326 310 315 320 317 331 52 93 103 110 111 113 115 121 125 124 118 109 115 118 112 111 112 101 88 82
278 265 238 251 277 273 268 247 233 260 270 273 298 278 292 283 310 317 326 352 326 336 358 346 354 314 300 304 308 304 315 327 334 2 67 92 103 108 112 116 120 124 123 123 125 128 133 134 131 117 109 87 71 81
273 134 185 226 261 229 264 267 252 251 276 257 282 327 342 337 302 348 8 13 53 23 344 320 310 320 334 329 329 334 344 4 6 13 17 91 107 115 116 118 123 124 128 133 138 140 136 132 133 128 117 102 89 67
160 206 264 227 239 242 255 239 245 283 279 262 289 294 216 323 340 5 14 37 37 332 317 319 334 347 351 351 35 23 27 45 26 39 121 122 126 118 125 126 131 136 141 144 146 147 149 149 143 138 127 108 96 89
205 216 228 227 237 235 261 229 240 252 258 287 317 22 359 79 351 6 69 24 346 347 359 3 11 9 10 28 43 49 48 64 86 102 89 125 149 124 131 124 142 141 144 150 153 147 153 162 161 141 110 88 105 109
183 221 218 217 213 259 260 229 219 244 312 319 250 150 328 62 35 67 74 6 356 16 28 30 30 25 40 30 34 36 39 50 75 104 105 117 124 130 150 142 130 151 151 147 147 157 160 161 152 139 129 130 132 132
217 227 199 239 230 244 247 236 192 89 259 240 299 75 323 144 85 73 39 344 360 16 29 31 32 27 20 20 27 33 45 47 58 83 81 103 110 113 134 130 134 123 158 160 156 157 162 134 146 149 177 179 167 151
222 216 201 217 203 227 254 287 111 228 280 351 353 210 187 127 69 49 0 341 353 9 23 27 23 15 19 19 18 25 50 46 54 71 76 93 118 119 131 139 145 142 157 168 169 171 156 142 149 176 190 188 169 152
242 247 224 235 257 293 306 54 40 52 26 309 323 360 48 67 77 47 341 3 4 13 23 30 33 26 18 18 27 51 67 36 46 85 52 86 79 46 102 100 105 107 150 71 157 180 126 143 151 143 162 161 137 145
255 270 161 299 243 201 229 324 240 124 36 359 15 49 89 75 113 345 35 54 47 47 45 49 50 39 34 29 27 56 127 79 117 120 94 93 95 102 95 89 76 36 207 105 133 136 134 152 163 149 151 131 123 144
247 238 212 301 237 232 218 213 132 115 6 16 100 106 123 131 118 95 65 56 43 39 40 56 60 55 49 51 50 59 107 110 109 109 87 77 91 90 108 84 44 24 172 145 121 113 156 156 166 154 140 136 114 122
246 238 190 199 184 218 141 153 129 114 48 90 133 116 106 120 112 94 67 50 47 50 47 47 51 47 41 43 50 57 65 80 78 83 75 61 59 72 101 119 59 40 124 145 155 158 156 151 152 151 143 141 135 131
262 185 132 136 154 129 137 131 131 113 76 76 101 123 123 119 105 88 69 60 58 50 39 40 36 34 33 35 41 50 53 61 82 62 57 50 51 71 92 104 95 77 113 118 119 144 140 142 148 149 160 166 161 141
201 166 131 122 152 144 144 148 153 140 141 138 142 143 145 139 139 138 131 85 63 61 49 29 22 35 28 30 32 39 41 52 59 30 25 54 58 68 98 126 123 110 119 106 124 130 141 153 165 169 173 184 196 188
151 157 127 130 140 174 190 182 157 138 159 194 206 199 183 171 167 191 154 145 112 77 42 8 110 26 38 23 20 33 30 31 31 27 18 3 20 70 117 127 135 161 171 158 156 178 197 189 170 173 186 186 196 212
Wind_Speed_850mb
44 45 47 48 50 52 54 55 55 55 54 58 58 62 59 50 47 48 61 52 57 54 81 78 80 68 51 29 15 26 26 19 5 6 7 9 7 3 11 13 10 11 10 15 24 22 45 23 14 25 14 34 39 46
46 48 49 50 52 54 54 55 58 57 58 58 62 64 58 49 48 47 66 56 53 70 66 81 85 67 63 70 60 45 32 21 9 3 5 5 10 6 11 7 4 7 4 5 3 9 13 15 28 36 42 55 43 46
49 50 50 51 53 53 54 54 58 56 56 57 63 65 58 54 54 48 60 52 47 57 70 77 67 71 67 77 83 58 58 47 36 52 20 8 16 7 3 7 4 5 8 7 12 17 23 19 8 40 47 53 50 40
51 50 52 53 53 51 53 57 57 54 54 58 60 61 56 51 49 46 48 41 38 26 14 28 24 41 48 47 57 73 79 66 57 47 20 8 8 13 6 7 4 10 7 6 7 35 40 36 20 13 38 50 45 37
50 49 50 51 51 50 54 60 57 53 55 57 59 57 56 52 51 40 38 38 34 35 11 35 60 70 51 62 60 53 64 74 50 19 10 10 10 10 14 7 18 21 14 9 8 25 17 25 31 14 30 56 45 41
49 48 48 48 46 48 56 60 56 53 56 57 58 57 55 45 39 36 13 12 14 26 13 7 29 69 40 38 48 45 68 72 46 16 10 14 30 26 7 7 15 38 46 52 27 30 26 36 24 23 14 24 35 41
48 46 43 43 42 45 50 56 52 52 56 57 59 57 51 42 36 24 15 22 15 5 9 11 13 15 10 5 12 35 37 36 44 33 21 22 29 26 8 25 17 25 38 47 54 53 30 29 17 7 8 23 34 43
47 44 43 43 43 46 49 53 49 53 58 62 60 56 53 41 31 23 10 13 31 17 9 5 9 14 8 9 5 9 10 29 26 20 10 9 9 12 11 20 34 52 63 68 68 54 47 32 26 36 26 47 48 48
45 42 43 44 46 48 51 50 47 52 58 60 52 45 35 7 8 15 29 35 25 25 8 8 6 8 6 6 7 6 6 6 15 8 6 11 7 14 23 30 46 60 45 43 43 33 45 57 61 54 60 50 47 49
40 39 40 41 43 45 49 47 46 53 57 54 31 14 10 4 24 63 8 6 16 17 16 9 11 8 21 15 7 4 9 3 4 10 12 9 18 66 66 75 60 54 46 49 42 41 43 44 39 31 49 46 52 49
36 36 37 36 38 42 44 44 46 51 54 29 14 9 30 56 17 5 6 6 9 6 13 16 24 12 18 5 7 12 5 4 5 6 9 6 8 21 68 81 86 70 64 57 46 39 18 14 22 32 38 51 53 45
35 35 33 35 37 38 39 41 33 41 40 39 37 43 26 11 6 3 5 3 8 6 6 8 13 27 21 15 6 5 5 3 9 11 7 6 8 17 23 17 45 65 76 77 61 43 38 26 16 34 42 56 50 45
33 33 31 33 35 39 36 22 28 31 39 17 4 6 5 6 6 5 5 5 6 8 11 10 9 13 12 7 1 1 7 10 11 6 6 8 9 43 52 41 31 41 44 72 67 61 60 41 36 45 58 55 53 52
30 31 29 29 29 15 17 24 30 27 14 6 4 9 6 8 8 7 7 11 16 17 43 41 13 9 9 4 4 6 8 3 6 7 9 2 39 56 59 50 52 51 25 42 39 33 33 44 56 49 46 49 50 46
27 27 25 20 8 21 26 26 28 21 8 6 6 8 10 23 23 32 22 26 30 36 31 22 18 12 5 6 4 7 6 8 7 5 14 49 66 67 44 45 45 20 40 37 31 44 49 53 45 52 61 58 44 25
24 25 14 8 27 29 26 33 22 8 7 8 13 9 25 19 22 20 33 38 44 37 44 11 6 5 5 5 7 5 11 6 8 10 54 69 33 19 20 29 57 65 65 65 62 64 67 69 72 65 51 40 34 30
21 20 3 25 34 39 35 24 10 8 9 9 13 22 40 46 35 37 41 45 49 23 5 6 6 5 6 6 5 7 7 8 35 73 69 34 23 38 35 65 66 75 74 71 69 68 70 64 58 46 41 35 27 23
29 15 18 21 34 31 12 7 7 10 14 22 14 19 23 35 40 42 49 42 29 5 6 4 11 6 6 9 7 9 39 52 63 50 37 36 41 43 53 57 57 59 68 61 60 60 55 48 43 40 34 30 27 23
20 15 9 10 13 14 6 7 12 10 20 24 31 40 37 44 33 33 38 38 24 22 17 10 5 4 6 8 23 49 54 43 51 63 28 44 44 47 52 52 50 51 58 59 37 30 31 34 36 34 35 29 27 25
19 15 9 10 10 6 7 9 12 13 12 11 26 19 17 13 23 23 20 16 11 5 6 6 5 14 23 48 50 50 46 49 51 35 32 39 38 40 44 47 48 46 46 45 43 42 41 39 33 29 27 24 23 21
7 3 8 9 12 15 10 9 12 14 18 14 27 20 8 7 5 12 17 15 12 8 7 15 38 46 45 42 39 46 38 38 35 21 16 24 30 38 40 38 39 40 41 37 36 33 30 29 28 23 21 20 22 18
9 7 12 8 8 8 13 16 14 18 14 19 21 10 2 3 9 13 12 21 7 8 15 31 43 48 47 50 36 28 23 20 18 23 18 25 31 27 31 30 29 32 33 29 23 27 27 26 25 20 14 17 16 21
13 11 9 8 9 10 14 13 11 9 6 6 12 5 2 4 6 6 7 8 7 21 28 36 39 33 32 46 42 36 38 24 6 20 23 13 21 24 26 16 30 27 26 22 24 25 26 25 23 17 18 15 16 18
14 7 7 9 15 9 10 11 13 10 5 4 4 2 2 3 4 6 4 5 28 31 39 41 45 38 26 32 45 52 46 37 35 25 25 23 21 16 17 29 24 20 23 27 23 30 29 22 14 18 16 12 16 16
5 8 8 11 11 8 8 7 7 5 5 7 2 3 2 5 3 3 3 11 32 31 37 41 40 43 40 31 36 41 41 37 30 27 22 17 21 24 24 15 21 18 10 20 22 23 20 16 14 12 10 15 15 14
8 13 14 12 11 9 6 4 2 4 3 5 4 6 8 4 4 4 6 19 21 26 28 32 33 35 36 31 30 30 26 34 33 27 26 20 18 21 19 17 18 16 8 10 16 17 13 15 15 16 17 19 19 21
7 10 20 15 8 9 8 3 6 5 3 2 4 6 4 4 4 4 13 18 22 22 18 20 23 26 33 36 22 19 12 27 22 14 22 22 20 18 12 11 14 15 9 2 11 7 10 21 16 15 26 20 16 27
11 11 5 5 5 6 3 4 3 1 2 5 5 5 4 2 2 4 8 24 29 24 19 14 13 16 24 33 33 17 13 17 32 25 31 32 25 20 18 16 11 2 4 10 11 13 17 23 19 20 17 21 22 28
12 16 11 5 7 7 11 4 3 2 3 1 4 4 5 5 8 11 15 19 22 30 30 24 26 22 20 23 32 30 21 22 28 35 35 40 34 25 15 17 19 15 7 18 16 11 22 20 19 24 20 22 24 29
17 21 16 11 5 6 3 6 10 7 10 5 13 12 9 12 14 14 14 17 17 18 26 27 26 27 30 29 29 30 32 28 25 24 25 28 29 30 24 17 16 18 15 18 17 19 21 22 34 23 23 22 19 22
13 4 8 5 2 10 21 22 19 16 18 20 19 20 15 10 11 7 10 14 15 15 17 22 26 25 25 27 28 23 25 19 18 14 12 14 15 18 20 16 14 15 13 16 16 20 22 27 26 25 26 22 17 15
12 10 12 5 4 19 27 16 14 7 11 10 9 10 14 8 5 3 3 5 9 13 16 15 18 21 20 24 24 24 25 17 12 7 12 9 12 16 15 18 14 12 12 14 18 23 24 24 24 19 21 24 20 16
11 15 15 12 10 12 14 12 12 7 7 10 9 14 10 11 6 5 7 4 3 4 6 15 1 13 14 16 17 20 27 24 17 15 12 7 4 4 5 7 6 8 9 13 15 16 16 18 16 19 22 21 21 25
Wind_Direction_850mb
312 313 314 314 317 319 319 319 320 321 322 323 321 321 315 310 305 297 287 274 259 254 263 259 260 261 264 250 258 281 315 292 253 216 207 227 234 325 299 256 216 221 237 231 215 224 246 191 162 172 198 153 149 146
312 311 310 314 316 317 317 319 321 319 322 323 325 325 322 315 309 301 290 287 278 257 264 272 269 266 257 255 249 251 243 244 280 357 292 308 312 273 244 260 75 261 264 273 251 261 264 191 186 200 164 155 164 159
312 309 311 314 316 316 317 318 319 319 323 324 329 328 324 316 312 302 296 292 275 267 263 263 261 276 276 262 252 245 252 248 244 249 262 239 237 241 255 241 230 269 204 240 352 1 305 340 253 210 183 175 166 165
310 309 312 315 316 316 318 318 320 319 321 325 329 331 324 320 315 305 298 295 270 265 264 276 285 271 277 265 252 243 249 253 253 256 241 245 262 208 228 246 220 239 209 277 254 275 283 296 319 309 191 173 171 170
311 311 312 315 315 317 319 320 321 320 322 324 324 327 327 321 321 312 301 290 265 247 287 293 292 292 276 247 246 253 245 245 240 232 221 237 225 221 247 239 248 210 214 217 270 282 301 308 328 288 269 192 188 180
311 309 312 314 313 320 316 320 321 320 324 327 325 323 326 326 324 331 327 22 338 252 281 292 295 296 304 268 254 250 244 237 217 198 209 213 227 209 231 230 221 223 229 239 237 254 276 293 300 282 158 153 181 179
307 306 309 307 308 311 315 319 320 319 321 326 326 321 313 313 304 295 274 291 308 304 271 299 295 281 312 293 226 238 241 227 223 225 226 235 246 222 238 247 228 233 255 261 253 269 266 288 272 206 191 154 149 155
302 304 305 303 307 312 316 321 319 319 322 324 322 317 309 299 292 295 315 295 250 267 247 267 270 290 246 254 277 230 249 211 215 214 233 226 212 222 256 239 248 250 253 255 258 250 248 249 248 238 265 164 157 155
298 302 301 304 309 312 314 320 319 322 325 330 327 315 306 263 280 316 304 288 275 238 258 238 251 277 264 283 268 260 248 216 190 210 227 181 198 227 247 251 241 251 244 249 269 269 246 239 242 246 225 180 173 163
295 297 299 306 314 314 312 318 320 325 329 336 341 331 298 261 301 309 291 193 202 217 228 251 233 266 286 285 269 272 211 226 222 231 167 212 246 246 248 246 245 256 261 250 252 267 261 247 233 219 192 200 188 169
288 290 296 303 313 316 315 317 324 326 335 350 332 280 290 309 318 283 266 222 219 256 229 242 236 241 260 191 230 219 230 233 254 249 182 241 266 247 256 245 244 240 239 251 237 251 273 324 202 175 185 184 169 167
282 288 293 302 310 315 320 322 327 325 327 313 302 296 306 322 294 16 265 260 236 273 265 281 297 292 258 248 185 238 214 215 248 163 233 244 261 327 355 295 259 248 238 237 241 243 249 279 251 168 165 163 160 163
282 288 294 304 311 311 313 321 333 323 319 338 313 282 286 277 330 237 285 225 253 270 278 295 318 288 291 241 11 347 254 238 308 237 239 232 323 347 335 322 321 304 247 234 235 243 255 271 189 166 157 154 156 160
282 288 297 308 314 312 324 334 330 328 346 312 303 289 170 262 239 221 234 270 252 261 284 293 267 256 259 289 203 229 241 247 248 239 244 266 336 325 319 311 317 329 209 209 212 203 215 152 145 152 157 157 168 161
281 289 304 298 273 295 318 317 321 314 286 271 256 244 239 244 277 295 291 315 298 309 296 291 263 245 263 258 242 275 259 253 248 299 300 301 300 298 294 308 322 213 156 153 167 159 151 154 157 157 159 158 155 152
282 296 313 276 304 305 309 315 315 311 248 243 233 260 268 283 282 300 303 308 326 317 322 271 275 292 280 282 262 229 308 308 296 293 300 301 294 284 311 90 106 127 136 136 143 145 147 145 141 138 139 142 143 150
269 274 272 297 301 305 310 280 285 232 238 243 249 255 271 280 275 289 312 296 302 311 284 298 293 275 302 267 318 357 329 298 307 310 315 357 75 79 90 100 98 112 121 126 130 133 130 128 129 130 127 125 131 129
259 282 261 283 303 315 309 224 245 243 246 240 246 266 267 268 273 282 300 310 298 236 264 287 308 296 290 315 331 329 322 317 319 335 13 83 104 107 111 114 120 118 120 123 123 124 123 128 127 116 112 119 120 112
274 275 257 283 329 316 270 237 225 259 250 253 260 277 277 281 282 296 297 304 315 289 284 300 281 301 320 339 326 310 315 320 317 331 52 93 103 110 111 113 115 121 125 124 118 109 115 118 112 111 112 101 88 82
278 265 238 251 277 273 268 247 233 260 270 273 298 278 292 283 310 317 326 352 326 336 358 346 354 314 300 304 308 304 315 327 334 2 67 92 103 108 112 116 120 124 123 123 125 128 133 134 131 117 109 87 71 81
273 134 185 226 261 229 264 267 252 251 276 257 282 327 342 337 302 348 8 13 53 23 344 320 310 320 334 329 329 334 344 4 6 13 17 91 107 115 116 118 123 124 128 133 138 140 136 132 133 128 117 102 89 67
160 206 264 227 239 242 255 239 245 283 279 262 289 294 216 323 340 5 14 37 37 332 317 319 334 347 351 351 35 23 27 45 26 39 121 122 126 118 125 126 131 136 141 144 146 147 149 149 143 138 127 108 96 89
205 216 228 227 237 235 261 229 240 252 258 287 317 22 359 79 351 6 69 24 346 347 359 3 11 9 10 28 43 49 48 64 86 102 89 125 149 124 131 124 142 141 144 150 153 147 153 162 161 141 110 88 105 109
183 221 218 217 213 259 260 229 219 244 312 319 250 150 328 62 35 67 74 6 356 16 28 30 30 25 40 30 34 36 39 50 75 104 105 117 124 130 150 142 130 151 151 147 147 157 160 161 152 139 129 130 132 132
217 227 199 239 230 244 247 236 192 89 259 240 299 75 323 144 85 73 39 344 360 16 29 31 32 27 20 20 27 33 45 47 58 83 81 103 110 113 134 130 134 123 158 160 156 157 162 134 146 149 177 179 167 151
222 216 201 217 203 227 254 287 111 228 280 351 353 210 187 127 69 49 0 341 353 9 23 27 23 15 19 19 18 25 50 46 54 71 76 93 118 119 131 139 145 142 157 168 169 171 156 142 149 176 190 188 169 152
242 247 224 235 257 293 306 54 40 52 26 309 323 360 48 67 77 47 341 3 4 13 23 30 33 26 18 18 27 51 67 36 46 85 52 86 79 46 102 100 105 107 150 71 157 180 126 143 151 143 162 161 137 145
255 270 161 299 243 201 229 324 240 124 36 359 15 49 89 75 113 345 35 54 47 47 45 49 50 39 34 29 27 56 127 79 117 120 94 93 95 102 95 89 76 36 207 105 133 136 134 152 163 149 151 131 123 144
247 238 212 301 237 232 218 213 132 115 6 16 100 106 123 131 118 95 65 56 43 39 40 56 60 55 49 51 50 59 107 110 109 109 87 77 91 90 108 84 44 24 172 145 121 113 156 156 166 154 140 136 114 122
246 238 190 199 184 218 141 153 129 114 48 90 133 116 106 120 112 94 67 50 47 50 47 47 51 47 41 43 50 57 65 80 78 83 75 61 59 72 101 119 59 40 124 145 155 158 156 151 152 151 143 141 135 131
262 185 132 136 154 129 137 131 131 113 76 76 101 123 123 119 105 88 69 60 58 50 39 40 36 34 33 35 41 50 53 61 82 62 57 50 51 71 92 104 95 77 113 118 119 144 140 142 148 149 160 166 161 141
201 166 131 122 152 144 144 148 153 140 141 138 142 143 145 139 139 138 131 85 63 61 49 29 22 35 28 30 32 39 41 52 59 30 25 54 58 68 98 126 123 110 119 106 124 130 141 153 165 169 173 184 196 188
151 157 127 130 140 174 190 182 157 138 159 194 206 199 183 171 167 191 154 145 112 77 42 8 110 26 38 23 20 33 30 31 31 27 18 3 20 70 117 127 135 161 171 158 156 178 197 189 170 173 186 186 196 212